CZ-4B R/B, 25942

Orbit data source: Space-Track

CZ-4B R/B, 25942 is space debris in SSO originally from a launch on Thu, 14 Oct 1999 UTC launched from the Taiyaun Space Center, China (TSC). Debris objects in space refer to the collection of defunct objects orbiting the Earth. Examples of debris include non-operational satellites, rocket bodies, and fragments generated from explosions, collisions, or faulty payload assembly.

Loading next visibility...
Identifier
25942, 1999-057C
Orbit
SSO
Country
Flag of CNCN / PRC
Related business
Manufacturer
SAST
Mission
Spacecraft
Bus & Motor
CZ-4 STAGE 3, Unknown motor
Mass
~1,000 kg wet, ~1,000 kg dry
Launch date (UTC)
1999-10-14 (26 years ago)
Launch vehicle
Unknown
Launch site
Taiyaun Space Center, China (TSC)
Object type
Payload
Rocket body
Debris
Shape & HBR
Cyl, 2.5 m
Radar Cross Section
14.536 m², Large (>1 m²)

Expand to show TLE details & history
Last TLE update: 20 hours ago

TLE from 20 hours ago
0 CZ-4B R/B
1 25942U 99057C   25350.11307130  .00000348  00000-0  12319-3 0  9997
2 25942  98.7503  34.2505 0096549  40.3889 320.4415 14.38254279369271
Epoch: 2025-12-16T02:42Z
TLE epoch observation values (Epoch: 2025-12-16T02:42:49.360Z)
Latitude
0.00001°
Longitude
-91.45712°
Altitude
714.307 km
Speed
7.526 km/s
True Right ascension
02h 17m 00s
True Declination
0° 00' 00"
Sunlit
Object was in full shadow at epoch
Visualization orbit readout
Latitude
Unknown
Longitude
Unknown
Altitude
Unknown
Speed
Unknown
Apparent Right ascension
Unknown
Apparent Declination
Unknown
Sunlit
N/A
Visualization observer readout
Local Sidereal Time
21:39:33
Azimuth
Unknown
Elevation
Unknown
Doppler factor
Unknown
Orbital elements
Apogee altitude
830.34 km
Perigee altitude
692.476 km
Semi-major axis
7,139.545 km
Eccentricity
0.00965
Inclination
98.7503°
RAAN
34.2505°
Arg. of periapsis
40.3889°
True anomaly
319.73029°
Mean anomaly
320.4415°
Eccentric anomaly
320.08656°
Mean motion
3.5978 °/min
Orbital period
100.06 mins
BSTAR
0.00012319
Loading maneuver chart data...
Computing Atmospheric mass density...
Loading historical data...
Loading historical data...
Loading historical data...
Loading historical data...
Loading historical data...
Loading historical data...
Loading historical data...

Documentation

Showing up to 5 results
|